TimeCST,TemperatureF,Dew PointF,Humidity,Sea Level PressureIn,VisibilityMPH,Wind Direction,Wind SpeedMPH,Gust SpeedMPH,PrecipitationIn,Events,Conditions,WindDirDegrees,DateUTC
12:11 AM,57.2,57.2,100,29.85,1.5,North,6.9,-,N/A,,Overcast,360,2011-11-16 06:11:00
12:20 AM,57.2,57.2,100,29.85,3.0,North,5.8,-,N/A,,Overcast,360,2011-11-16 06:20:00
12:28 AM,57.2,57.2,100,29.85,1.8,North,4.6,-,N/A,,Overcast,360,2011-11-16 06:28:00
12:40 AM,57.2,57.2,100,29.85,0.8,North,5.8,-,N/A,,Mist,360,2011-11-16 06:40:00
12:53 AM,57.0,57.0,100,29.83,2.0,NNW,4.6,-,N/A,,Overcast,340,2011-11-16 06:53:00
1:01 AM,57.2,57.2,100,29.85,4.0,North,5.8,-,N/A,,Overcast,360,2011-11-16 07:01:00
1:20 AM,57.2,55.4,94,29.85,7.0,NNW,5.8,-,N/A,,Overcast,340,2011-11-16 07:20:00
1:31 AM,57.2,55.4,94,29.85,7.0,North,8.1,-,N/A,,Overcast,350,2011-11-16 07:31:00
1:53 AM,55.9,54.0,93,29.83,10.0,North,9.2,19.6,N/A,,Mostly Cloudy,360,2011-11-16 07:53:00
2:06 AM,55.4,53.6,94,29.86,10.0,North,8.1,-,N/A,,Mostly Cloudy,360,2011-11-16 08:06:00
2:53 AM,52.0,46.9,83,29.86,10.0,North,10.4,-,N/A,,Clear,360,2011-11-16 08:53:00
3:53 AM,48.0,41.0,77,29.88,10.0,North,10.4,18.4,N/A,,Clear,360,2011-11-16 09:53:00
4:53 AM,46.0,37.0,71,29.90,10.0,North,8.1,-,N/A,,Clear,350,2011-11-16 10:53:00
5:53 AM,44.1,35.1,71,29.93,10.0,North,5.8,-,N/A,,Clear,350,2011-11-16 11:53:00
6:53 AM,42.1,33.1,70,29.97,10.0,NNW,4.6,-,N/A,,Clear,340,2011-11-16 12:53:00
7:53 AM,42.1,32.0,67,30.01,10.0,NNW,4.6,-,N/A,,Clear,340,2011-11-16 13:53:00
8:53 AM,45.0,30.0,56,30.04,10.0,North,12.7,20.7,N/A,,Clear,10,2011-11-16 14:53:00
9:53 AM,46.9,27.0,46,30.05,10.0,North,15.0,21.9,N/A,,Clear,10,2011-11-16 15:53:00
10:53 AM,48.9,25.0,39,30.06,10.0,North,11.5,23.0,N/A,,Clear,10,2011-11-16 16:53:00
11:53 AM,50.0,23.0,35,30.05,10.0,North,12.7,19.6,N/A,,Overcast,350,2011-11-16 17:53:00
12:53 PM,50.0,23.0,35,30.06,10.0,North,9.2,18.4,N/A,,Overcast,350,2011-11-16 18:53:00
1:53 PM,52.0,21.0,30,30.06,10.0,North,16.1,23.0,N/A,,Mostly Cloudy,360,2011-11-16 19:53:00
2:53 PM,51.1,18.0,27,30.09,10.0,North,16.1,24.2,N/A,,Partly Cloudy,350,2011-11-16 20:53:00
3:53 PM,46.9,18.0,32,30.13,10.0,North,15.0,21.9,N/A,,Overcast,360,2011-11-16 21:53:00
4:53 PM,45.0,19.9,37,30.18,10.0,NNW,10.4,18.4,N/A,,Overcast,330,2011-11-16 22:53:00
5:53 PM,43.0,18.0,37,30.23,10.0,NNW,10.4,18.4,N/A,,Scattered Clouds,330,2011-11-16 23:53:00
6:53 PM,43.0,16.0,34,30.27,10.0,NNW,8.1,-,N/A,,Overcast,330,2011-11-17 00:53:00
7:53 PM,39.0,23.0,53,30.27,10.0,NNW,3.5,-,0.00,Rain,Light Rain,340,2011-11-17 01:53:00
8:53 PM,37.9,23.0,55,30.28,10.0,NW,3.5,-,N/A,,Mostly Cloudy,320,2011-11-17 02:53:00
9:53 PM,37.0,28.0,70,30.30,10.0,NW,4.6,-,N/A,,Partly Cloudy,310,2011-11-17 03:53:00
10:53 PM,34.0,28.9,82,30.31,10.0,WNW,5.8,-,N/A,,Clear,290,2011-11-17 04:53:00
11:53 PM,34.0,30.0,85,30.33,10.0,WNW,8.1,-,N/A,,Clear,290,2011-11-17 05:53:00